Location: Newark
(21.7333°N, 71.8000°W)
Time: 09:34:41
(UTC+00:00)

LightSail 2 - Visible Passes

Search period start: 18 November 2019 00:00
Search period end: 28 November 2019 00:00
Orbit: 700 x 727 km, 24.0° (Epoch: 17 November)

Date Brightness Start Highest point End Pass type
(mag) Time Alt. Az. Time Alt. Az. Time Alt. Az.
18 Nov 6.0 08:45:54 47° E 08:45:54 47° E 08:49:38 10° E visible
18 Nov 5.7 10:24:55 10° W 10:29:57 50° SSW 10:35:00 10° SE visible
19 Nov 8.3 07:51:38 10° E 07:51:38 10° E 07:51:38 10° E visible
19 Nov 5.3 09:30:36 44° WSW 09:32:03 65° SSW 09:37:12 10° ESE visible
20 Nov 6.6 08:36:20 35° ESE 08:36:20 35° ESE 08:39:20 10° ESE visible
20 Nov 6.3 10:15:19 12° W 10:19:32 32° SSW 10:24:09 10° SE visible
21 Nov 5.7 09:21:03 41° SW 09:21:39 43° SSW 09:26:33 10° SE visible
22 Nov 7.2 08:26:47 23° SE 08:26:47 23° SE 08:28:49 10° ESE visible
22 Nov 6.9 10:05:46 12° WSW 10:09:02 20° SSW 10:12:45 10° SSE visible
23 Nov 7.4 00:20:07 10° SSW 00:21:26 15° S 00:21:26 15° S visible
23 Nov 6.5 09:11:31 27° SSW 09:11:31 27° SSW 09:15:30 10° SE visible
23 Nov 7.1 23:23:18 10° S 23:25:56 14° SSE 23:27:11 13° SE visible
24 Nov 7.8 08:17:15 14° SE 08:17:15 14° SE 08:18:01 10° SE visible
24 Nov 7.4 09:57:08 10° SW 09:58:32 11° SSW 09:59:57 10° S visible
25 Nov 6.6 00:08:44 10° SW 00:11:53 28° S 00:11:53 28° S visible
25 Nov 7.3 09:01:57 15° S 09:01:57 15° S 09:03:46 10° SSE visible
25 Nov 6.6 23:11:19 10° SSW 23:15:24 24° SSE 23:17:36 18° ESE visible
26 Nov 7.8 00:55:39 10° WSW 00:56:35 15° WSW 00:56:35 15° WSW visible
26 Nov 5.7 23:57:50 10° WSW 00:02:16 49° S 00:02:16 49° S visible
27 Nov 6.0 23:00:07 10° SW 23:04:52 39° SSE 23:07:56 19° ESE visible
